sat.trackr.live / text

‹ back to catalog

FLYLAB1

NORAD 68472 · 2026-067BJ

PAYLOAD ACTIVE UNKNOWN

§ Identity

Operator
Country
FR
Launch date
2026-03-30
Launch site
AFWTR
Launch vehicle
Mass (kg)
RCS (m²)

External: N2YO · Heavens-Above · Gunter

§ Orbital elements

Epoch: 2026-05-24T19:21:19.238688Z

Period
96.59 min
Inclination
97.7620°
Eccentricity
0.0005701
Mean motion
14.90781040 rev/d
Perigee alt
591.5 km
Apogee alt
599.5 km
Semi-major
6,973.6 km
B*
1.6289e-4
RAAN
103.3663°
Arg perigee
107.7102°
Mean anomaly
252.4739°
Rev number
824

§ Raw data

FLYLAB11 68472U 26067BJ  26144.80647267  .00001547  00000+0  16289-3 0  99902 68472  97.7620 103.3663 0005701 107.7102 252.4739 14.90781040  8243

JSON: /api/v1/satellites/68472 · /tle

For live sub-satellite position, see the globe view (requires WebGL).

§ Visibility from observer

Set your observer location to see the next 7 days of passes ≥ 10°. The values pass through the URL so the page stays shareable.

No JS? Fill the form by hand. The geolocation button needs JavaScript.